Location: Star Dogged Moon Observatory
(29.7756°N, 82.0783°W)
Time: 22:04:44
(UTC-04:00)

ARGOS - Visible Passes

Search period start: 29 July 2015 00:00
Search period end: 08 August 2015 00:00
Orbit: 820 x 836 km, 98.7° (Epoch: 29 July)

Date Brightness Start Highest point End Pass type
(mag) Time Alt. Az. Time Alt. Az. Time Alt. Az.
29 Jul 5.0 21:49:18 14° ENE 21:49:48 14° ENE 21:52:36 10° NE visible
29 Jul 4.0 23:30:49 46° NW 23:30:49 46° NW 23:34:54 10° NNW visible
30 Jul 3.5 23:12:09 60° NNW 23:12:09 60° NNW 23:16:31 10° NNW visible
31 Jul 3.5 22:53:29 53° NE 22:53:29 53° NE 22:57:57 10° N visible
01 Aug 5.9 00:35:01 10° WNW 00:35:01 10° WNW 00:35:11 10° WNW visible
01 Aug 3.9 22:34:50 37° ENE 22:34:50 37° ENE 22:39:12 10° N visible
02 Aug 5.5 00:16:21 17° WNW 00:16:21 17° WNW 00:18:19 10° NW visible
02 Aug 4.4 22:16:09 25° ENE 22:16:09 25° ENE 22:20:14 10° NNE visible
02 Aug 5.0 23:57:41 25° WNW 23:57:41 25° WNW 00:00:37 10° NW visible
03 Aug 4.8 21:57:29 17° ENE 21:57:29 17° ENE 22:00:54 10° NNE visible
03 Aug 4.5 23:39:01 36° NW 23:39:01 36° NW 23:42:32 10° NNW visible
04 Aug 5.2 21:38:50 10° ENE 21:39:09 11° ENE 21:40:23 10° NE visible
04 Aug 3.9 23:20:21 48° NNW 23:20:21 48° NNW 23:24:14 10° NNW visible
05 Aug 3.7 23:01:42 51° N 23:01:42 51° N 23:05:45 10° N visible
06 Aug 3.9 22:43:02 41° NE 22:43:02 41° NE 22:47:04 10° N visible
07 Aug 5.7 00:24:33 13° WNW 00:24:33 13° WNW 00:25:34 10° WNW visible
07 Aug 4.3 22:24:23 29° NE 22:24:23 29° NE 22:28:13 10° N visible
